Location: Martin
(32.0982°N, 93.2193°W)
Time: 16:24:50
(UTC+00:00)

ARIANE 6 FM1 Upper Stage - Pass Details

Date: 22 September 2024
Orbit: 563 x 595 km, 62.0° (Epoch: 12 October)

Event Time Altitude Azimuth Distance (km) Brightness Sun altitude
Exits shadow 10:50:10 15° 310° (NW) 1,605 4.6 -15.8°
Maximum altitude 10:53:26 44° 243° (WSW) 832 3.1 -15.2°
Drops below altitude 10° 10:57:34 10° 171° (S) 1,919 5.4 -14.3°
Sets 10:59:53 0° 165° (SSE) 2,814 6.3 -13.8°
